| time (UTC) | temp F | wind direction | speed knots | gust knots | rain 1hr in | rain 24hr in | rain mn in | humidity % | barometer mb |
| 20260503230053 | 71 | 79 | 0.9 | 1.7 | 0.00 | 0.00 | 0.00 | 38 | 1012.0 |
| 20260503225032 | 71 | 81 | 0.0 | 1.7 | 0.00 | 0.00 | 0.00 | 39 | 1012.0 |
| 20260503224033 | 71 | 80 | 0.0 | 0.9 | 0.00 | 0.00 | 0.00 | 41 | 1012.1 |
| 20260503223033 | 71 | 80 | 0.9 | 1.7 | 0.00 | 0.00 | 0.00 | 42 | 1012.3 |
| 20260503222033 | 71 | 82 | 0.9 | 1.7 | 0.00 | 0.00 | 0.00 | 43 | 1012.4 |
| 20260503221032 | 70 | 83 | 0.9 | 1.7 | 0.00 | 0.00 | 0.00 | 43 | 1012.7 |
| 20260503220032 | 70 | 82 | 0.9 | 1.7 | 0.00 | 0.00 | 0.00 | 43 | 1012.7 |
| 20260503215040 | 71 | 85 | 0.9 | 1.7 | 0.00 | 0.00 | 0.00 | 42 | 1012.9 |
| 20260503214033 | 71 | 85 | 0.9 | 1.7 | 0.00 | 0.00 | 0.00 | 44 | 1013.0 |
| 20260503213020 | 71 | 80 | 0.9 | 1.7 | 0.00 | 0.00 | 0.00 | 42 | 1013.1 |
| 20260503212032 | 71 | 84 | 0.9 | 1.7 | 0.00 | 0.00 | 0.00 | 43 | 1013.2 |
| 20260503211128 | 72 | 81 | 0.9 | 1.7 | 0.00 | 0.00 | 0.00 | 42 | 1013.1 |
| 20260503210028 | 72 | 82 | 0.9 | 1.7 | 0.00 | 0.00 | 0.00 | 41 | 1013.2 |
| 20260503205052 | 72 | 81 | 0.9 | 1.7 | 0.00 | 0.00 | 0.00 | 42 | 1013.3 |
| 20260503204116 | 72 | 78 | 0.9 | 1.7 | 0.00 | 0.00 | 0.00 | 41 | 1013.3 |
| 20260503203033 | 71 | 81 | 0.9 | 1.7 | 0.00 | 0.00 | 0.00 | 42 | 1013.4 |
| 20260503202101 | 71 | 86 | 1.7 | 1.7 | 0.00 | 0.00 | 0.00 | 41 | 1013.3 |
| 20260503201021 | 71 | 83 | 0.9 | 2.6 | 0.00 | 0.00 | 0.00 | 43 | 1013.4 |
| 20260503200033 | 71 | 87 | 0.9 | 1.7 | 0.00 | 0.00 | 0.00 | 45 | 1013.6 |
| 20260503195109 | 70 | 83 | 0.9 | 1.7 | 0.00 | 0.00 | 0.00 | 46 | 1013.7 |
| 20260503194028 | 70 | 81 | 0.9 | 1.7 | 0.00 | 0.00 | 0.00 | 45 | 1013.8 |
| 20260503193052 | 70 | 84 | 0.9 | 1.7 | 0.00 | 0.00 | 0.00 | 46 | 1014.0 |
| 20260503192033 | 70 | 85 | 0.9 | 1.7 | 0.00 | 0.00 | 0.00 | 47 | 1014.1 |
| 20260503191052 | 69 | 80 | 0.9 | 1.7 | 0.00 | 0.00 | 0.00 | 47 | 1014.2 |
| 20260503190028 | 70 | 83 | 1.7 | 2.6 | 0.00 | 0.00 | 0.00 | 47 | 1014.2 |
| 20260503185113 | 69 | 81 | 0.9 | 1.7 | 0.00 | 0.00 | 0.00 | 48 | 1014.2 |
| 20260503184116 | 68 | 83 | 0.9 | 1.7 | 0.00 | 0.00 | 0.00 | 50 | 1014.2 |
| 20260503183037 | 68 | 80 | 0.9 | 1.7 | 0.00 | 0.00 | 0.00 | 49 | 1014.4 |
| 20260503182101 | 68 | 86 | 0.9 | 2.6 | 0.00 | 0.00 | 0.00 | 50 | 1014.5 |
| 20260503181020 | 67 | 77 | 0.9 | 0.9 | 0.00 | 0.00 | 0.00 | 51 | 1014.6 |
| 20260503180105 | 67 | 79 | 0.9 | 1.7 | 0.00 | 0.00 | 0.00 | 50 | 1014.7 |
| 20260503175108 | 66 | 82 | 0.9 | 1.7 | 0.00 | 0.00 | 0.00 | 52 | 1014.8 |
| 20260503174028 | 66 | 79 | 0.0 | 0.9 | 0.00 | 0.00 | 0.00 | 52 | 1014.9 |
| 20260503173113 | 66 | 81 | 0.9 | 1.7 | 0.00 | 0.00 | 0.00 | 54 | 1014.9 |
| 20260503172117 | 65 | 80 | 0.9 | 0.9 | 0.00 | 0.00 | 0.00 | 53 | 1015.1 |
| 20260503171037 | 65 | 82 | 0.9 | 1.7 | 0.00 | 0.00 | 0.00 | 53 | 1015.0 |
| 20260503160117 | 62 | 79 | 0.0 | 0.9 | 0.00 | 0.00 | 0.00 | 57 | 1015.3 |
| 20260503131021 | 52 | 0.0 | 0.0 | 0.00 | 0.00 | 0.00 | 79 | 1015.1 | |
| 20260503130105 | 52 | 0.0 | 0.0 | 0.00 | 0.00 | 0.00 | 79 | 1015.1 | |
| 20260503081053 | 53 | 65 | 0.9 | 0.9 | 0.00 | 0.00 | 0.00 | 81 | 1015.7 |
| 20260503072033 | 53 | 66 | 0.9 | 0.9 | 0.00 | 0.00 | 0.00 | 81 | 1015.6 |
| 20260503071033 | 53 | 66 | 0.0 | 0.9 | 0.00 | 0.00 | 0.00 | 80 | 1015.7 |
| 20260503055033 | 54 | 67 | 0.0 | 0.9 | 0.00 | 0.00 | 0.00 | 78 | 1015.6 |
| 20260503054033 | 54 | 67 | 0.0 | 0.9 | 0.00 | 0.00 | 0.00 | 80 | 1015.7 |
| 20260503053033 | 54 | 67 | 0.9 | 0.9 | 0.00 | 0.00 | 0.00 | 80 | 1015.8 |
| 20260503052033 | 54 | 67 | 0.9 | 0.9 | 0.00 | 0.00 | 0.00 | 81 | 1015.7 |
| 20260503051033 | 54 | 67 | 0.0 | 0.9 | 0.00 | 0.00 | 0.00 | 79 | 1015.6 |
| 20260503050053 | 54 | 67 | 0.0 | 0.9 | 0.00 | 0.00 | 0.00 | 81 | 1015.7 |
| 20260503045033 | 55 | 67 | 0.9 | 0.9 | 0.00 | 0.00 | 0.00 | 80 | 1015.7 |
| 20260503044033 | 55 | 67 | 0.9 | 1.7 | 0.00 | 0.00 | 0.00 | 79 | 1015.5 |
| 20260503043033 | 55 | 67 | 0.9 | 0.9 | 0.00 | 0.00 | 0.00 | 77 | 1015.5 |
| 20260503042033 | 55 | 68 | 0.0 | 0.9 | 0.00 | 0.00 | 0.00 | 76 | 1015.3 |
| 20260503041033 | 55 | 68 | 0.0 | 0.9 | 0.00 | 0.00 | 0.00 | 77 | 1015.3 |
| 20260503040033 | 56 | 69 | 0.9 | 0.9 | 0.00 | 0.00 | 0.00 | 77 | 1015.1 |
| 20260503035033 | 56 | 69 | 0.9 | 0.9 | 0.00 | 0.00 | 0.00 | 76 | 1015.0 |
| 20260503034033 | 57 | 69 | 0.0 | 0.9 | 0.00 | 0.00 | 0.00 | 76 | 1015.0 |
| 20260503033033 | 57 | 69 | 0.0 | 0.9 | 0.00 | 0.00 | 0.00 | 75 | 1014.8 |
| 20260503032033 | 58 | 70 | 0.0 | 0.9 | 0.00 | 0.00 | 0.00 | 74 | 1014.8 |
| 20260503031053 | 58 | 0.0 | 0.0 | 0.00 | 0.00 | 0.00 | 75 | 1014.8 | |
| 20260503030033 | 58 | 0.0 | 0.0 | 0.00 | 0.00 | 0.00 | 71 | 1014.7 | |
| 20260503025033 | 59 | 0.0 | 0.0 | 0.00 | 0.00 | 0.00 | 71 | 1014.6 | |
| 20260503024033 | 59 | 0.0 | 0.0 | 0.00 | 0.00 | 0.00 | 69 | 1014.7 | |
| 20260503023033 | 59 | 0.0 | 0.0 | 0.00 | 0.00 | 0.00 | 69 | 1014.8 | |
| 20260503022053 | 59 | 0.0 | 0.0 | 0.00 | 0.00 | 0.00 | 69 | 1014.8 | |
| 20260503021033 | 60 | 0.0 | 0.0 | 0.00 | 0.00 | 0.00 | 68 | 1014.6 | |
| 20260503020033 | 60 | 0.0 | 0.0 | 0.00 | 0.00 | 0.00 | 67 | 1014.8 | |
| 20260503015033 | 61 | 0.0 | 0.0 | 0.00 | 0.00 | 0.00 | 66 | 1014.8 | |
| 20260503014033 | 61 | 0.0 | 0.0 | 0.00 | 0.00 | 0.00 | 65 | 1014.8 | |
| 20260503013033 | 62 | 0.0 | 0.0 | 0.00 | 0.00 | 0.00 | 66 | 1014.9 | |
| 20260503012033 | 62 | 70 | 0.0 | 0.9 | 0.00 | 0.00 | 0.00 | 64 | 1014.9 |
| 20260503011033 | 63 | 71 | 0.0 | 0.9 | 0.00 | 0.00 | 0.00 | 63 | 1015.0 |
| 20260503010033 | 63 | 0.0 | 0.0 | 0.00 | 0.00 | 0.00 | 56 | 1015.0 | |
| 20260503005053 | 63 | 0.0 | 0.0 | 0.00 | 0.00 | 0.00 | 58 | 1015.0 | |
| 20260503004033 | 64 | 0.0 | 0.0 | 0.00 | 0.00 | 0.00 | 60 | 1015.0 | |
| 20260503003053 | 64 | 0.0 | 0.0 | 0.00 | 0.00 | 0.00 | 61 | 1015.1 | |
| 20260503002033 | 65 | 85 | 0.9 | 1.7 | 0.00 | 0.00 | 0.00 | 58 | 1015.0 |
| 20260503001033 | 65 | 86 | 0.0 | 0.9 | 0.00 | 0.00 | 0.00 | 53 | 1015.1 |
| 20260503000033 | 65 | 89 | 0.9 | 0.9 | 0.00 | 0.00 | 0.00 | 57 | 1015.1 |
| 20260502235033 | 65 | 89 | 0.0 | 0.9 | 0.00 | 0.00 | 0.00 | 59 | 1015.1 |
| 20260502234033 | 65 | 89 | 0.0 | 1.7 | 0.00 | 0.00 | 0.00 | 58 | 1015.2 |
| 20260502233053 | 66 | 88 | 0.0 | 0.9 | 0.00 | 0.00 | 0.00 | 53 | 1015.3 |
| 20260502232033 | 66 | 88 | 0.0 | 1.7 | 0.00 | 0.00 | 0.00 | 53 | 1015.4 |
| 20260502231033 | 66 | 87 | 0.9 | 0.9 | 0.00 | 0.00 | 0.00 | 51 | 1015.6 |